Location: Newark
(59.4564°N, 26.6917°E)
Time: 08:32:27
(UTC+00:00)

SR - Pass Details

Date: 23 November 2019
Orbit: 573 x 882 km, 66.7° (Epoch: 11 December)

Event Time Altitude Azimuth Distance (km) Brightness Sun altitude
Rises 20:47:36 0° 312° (NW) 3,485 ? -48.9°
Enters shadow 20:49:32 - 306° (NW) 2,809 ? -49.0°
Reaches altitude 10° 20:50:19 10° 303° (WNW) 2,552 - -49.0°
Maximum altitude 20:55:32 33° 242° (WSW) 1,450 - -49.3°
Drops below altitude 10° 21:00:38 10° 181° (S) 2,494 - -49.6°
Sets 21:03:16 0° 172° (S) 3,395 - -49.7°
